1489006800.87,36076,9.25,73510.5,-7.17,-34.65,-34.65,0,*55
1489006802.16,36077,9.25,73504.5,-7.17,-34.65,-34.65,0,*54
1489006803.46,36078,9.25,73508.3,-7.17,-34.65,-34.65,0,*5B
1489006804.72,36079,9.25,73508.5,-7.17,-34.65,-34.71,0,*5F
1489006805.96,36080,9.25,73518.8,-7.21,-34.71,-34.71,0,*59
1489006807.19,36081,9.25,73502.5,-7.21,-34.89,-34.89,0,*58
1489006808.45,36082,9.25,73502.0,-7.21,-34.89,-34.95,0,*56
1489006809.67,36083,9.31,73500.0,-7.21,-34.89,-34.89,0,*5A
1489006810.89,36084,9.25,73508.3,-7.23,-34.71,-34.89,0,*58
1489006812.12,36085,9.25,73510.3,-7.21,-34.77,-34.89,0,*5D
1489006813.35,36086,9.25,73516.8,-7.23,-34.95,-34.89,0,*50
1489006814.61,36087,9.25,73518.8,-7.21,-34.95,-34.89,0,*53
1489006815.84,36088,9.25,73524.8,-7.21,-34.89,-34.89,0,*51
1489006817.07,36089,9.25,73528.5,-7.23,-34.89,-34.95,0,*5F
1489006818.31,36090,9.31,73530.8,-7.23,-35.07,-35.13,0,*5F
1489006819.57,36091,9.25,73526.5,-7.21,-34.95,-34.89,0,*54
1489006820.78,36092,9.25,73524.0,-7.23,-34.77,-34.77,0,*58
1489006821.99,36093,9.25,73514.5,-7.23,-34.89,-34.77,0,*58
1489006823.21,36094,9.25,73522.8,-7.23,-34.71,-34.77,0,*58
1489006824.42,36095,9.25,73522.5,-7.23,-34.59,-34.59,0,*5F
1489006825.68,36096,9.25,73496.5,-7.23,-34.19,-34.19,0,*5C
1489006826.95,36097,9.25,73504.0,-7.21,-34.19,-34.35,0,*51
1489006828.21,36098,9.25,73510.8,-7.23,-34.35,-34.53,0,*52
1489006829.5,36099,9.25,73522.5,-7.21,-34.53,-34.53,0,*51
1489006830.72,36100,9.25,73534.8,-7.23,-34.59,-34.71,0,*58
1489006831.93,36101,9.25,73522.8,-7.23,-34.59,-34.59,0,*53
1489006833.16,36102,9.25,73520.0,-7.23,-34.07,-34.19,0,*5F
1489006834.37,36103,9.25,73526.0,-7.25,-34.25,-34.13,0,*52
1489006835.62,36104,9.25,73526.5,-7.21,-34.35,-34.41,0,*57
1489006836.87,36105,9.25,73524.0,-7.21,-34.41,-34.53,0,*56
1489006838.14,36106,9.25,73520.8,-7.23,-34.53,-34.53,0,*54
1489006839.37,36107,9.25,73522.8,-7.23,-34.41,-34.53,0,*56
1489006840.57,36108,9.25,73522.3,-7.23,-34.25,-34.41,0,*58
1489006841.8,36109,9.25,73522.0,-7.23,-34.41,-34.53,0,*58
1489006843.01,36110,9.25,73520.5,-7.23,-34.41,-34.41,0,*53
1489006844.23,36111,9.25,73520.0,-7.21,-34.25,-34.25,0,*50
1489006845.48,36112,9.25,73520.0,-7.21,-34.25,-34.35,0,*52
1489006846.72,36113,9.25,73524.0,-7.21,-34.25,-34.35,0,*53
1489006848.0,36114,9.25,73524.3,-7.21,-34.35,-34.35,0,*55
1489006849.25,36115,9.25,73514.0,-7.21,-34.25,-34.35,0,*55
1489006850.53,36116,9.25,73508.8,-7.17,-34.19,-34.31,0,*58
1489006851.79,36117,9.25,73518.3,-7.17,-34.13,-34.19,0,*59
1489006853.02,36118,9.25,73516.8,-7.21,-34.07,-34.25,0,*59
1489006854.27,36119,9.25,73520.3,-7.21,-34.07,-34.35,0,*59
1489006855.49,36120,9.25,73524.5,-7.21,-34.25,-34.25,0,*52
1489006856.75,36121,9.25,73526.0,-7.21,-34.19,-34.07,0,*5C
1489006858.0,36122,9.25,73516.0,-7.17,-34.13,-34.19,0,*5F
1489006859.28,36123,9.25,73520.8,-7.17,-34.31,-34.35,0,*50
1489006860.52,36124,9.25,73522.8,-7.17,-34.13,-34.13,0,*53
1489006861.76,36125,9.31,73524.5,-7.17,-34.13,-34.13,0,*52
1489006863.01,36126,9.25,73526.5,-7.15,-34.35,-34.35,0,*53
1489006864.26,36127,9.25,73528.8,-7.15,-34.19,-34.19,0,*52
1489006865.52,36128,9.25,73532.0,-7.17,-34.13,-34.31,0,*5F
1489006866.76,36129,9.25,73532.0,-7.15,-34.31,-34.47,0,*5D
1489006868.05,36130,9.25,73536.8,-7.17,-34.65,-34.65,0,*56
1489006869.33,36131,9.25,73534.3,-7.17,-34.83,-34.83,0,*57
1489006870.6,36132,9.25,73540.8,-7.17,-34.65,-34.71,0,*51
1489006871.87,36133,9.25,73538.5,-7.15,-34.53,-34.65,0,*52
1489006873.13,36134,9.25,73534.5,-7.17,-34.71,-34.83,0,*5F
1489006874.4,36135,9.25,73524.3,-7.17,-34.65,-34.71,0,*56
1489006875.69,36136,9.25,73520.5,-7.17,-34.65,-34.53,0,*55
1489006876.98,36137,9.25,73518.8,-7.17,-34.65,-34.65,0,*51
1489006878.22,36138,9.25,73516.0,-7.21,-34.71,-34.71,0,*5B
1489006879.46,36139,9.25,73512.0,-7.21,-34.71,-34.77,0,*5C
1489006880.7,36140,9.25,73508.0,-7.21,-34.59,-34.71,0,*5E
1489006881.94,36141,9.25,73508.3,-7.21,-34.71,-34.71,0,*55
1489006883.17,36142,9.25,73518.0,-7.21,-34.71,-34.59,0,*5C
1489006884.41,36143,9.25,73514.8,-7.21,-34.59,-34.59,0,*57
1489006885.65,36144,9.25,73516.3,-7.21,-34.59,-34.59,0,*50
1489006886.93,36145,9.25,73512.5,-7.17,-34.19,-34.31,0,*5E
1489006888.18,36146,9.25,73504.3,-7.21,-34.25,-34.35,0,*53
1489006889.45,36147,9.25,73504.8,-7.21,-34.35,-34.35,0,*53
1489006890.7,36148,9.25,73498.3,-7.21,-34.35,-34.41,0,*5F
1489006891.96,36149,9.25,73506.3,-7.21,-34.35,-34.41,0,*5E
1489006893.21,36150,9.25,73508.0,-7.21,-34.41,-34.53,0,*56
1489006894.46,36151,9.25,73508.5,-7.21,-34.35,-34.41,0,*57
1489006895.75,36152,9.25,73508.0,-7.21,-34.53,-34.53,0,*57
1489006897.0,36153,9.25,73504.8,-7.15,-34.35,-34.35,0,*51
1489006898.28,36154,9.25,73500.5,-7.17,-34.35,-34.35,0,*54
1489006899.54,36155,9.25,73504.8,-7.15,-34.31,-34.31,0,*57
1489006900.78,36156,9.25,73518.3,-7.17,-34.47,-34.47,0,*56
1489006902.03,36157,9.25,73530.0,-7.17,-34.47,-34.47,0,*57
1489006903.32,36158,9.25,73530.3,-7.17,-34.65,-34.65,0,*58
1489006904.61,36159,9.25,73516.3,-7.17,-34.53,-34.53,0,*59
1489006905.89,36160,9.25,73516.3,-7.17,-34.35,-34.35,0,*53
1489006907.14,36161,9.25,73518.5,-7.17,-34.47,-34.47,0,*52
1489006908.43,36162,9.25,73522.0,-7.17,-34.65,-34.65,0,*51
1489006909.7,36163,9.25,73520.0,-7.15,-34.65,-34.65,0,*52
1489006910.94,36164,9.25,73514.0,-7.21,-34.59,-34.59,0,*52
1489006912.23,36165,9.25,73514.5,-7.17,-34.53,-34.53,0,*56
1489006913.52,36166,9.25,73516.5,-7.17,-34.53,-34.65,0,*50
1489006914.82,36167,9.25,73522.5,-7.17,-34.65,-34.65,0,*54
1489006916.11,36168,9.25,73516.5,-7.17,-34.53,-34.53,0,*5B
1489006917.37,36169,9.25,73510.3,-7.17,-34.35,-34.47,0,*5F
1489006918.62,36170,9.25,73506.0,-7.17,-34.47,-34.47,0,*52
1489006919.88,36171,9.25,73506.5,-7.17,-34.35,-34.47,0,*56
1489006921.13,36172,9.25,73512.8,-7.17,-34.47,-34.47,0,*50
1489006922.37,36173,9.25,73526.3,-7.15,-34.47,-34.53,0,*56
1489006923.58,36174,9.25,73540.8,-7.15,-34.71,-34.71,0,*54
1489006924.85,36175,9.25,73546.0,-7.17,-34.71,-34.53,0,*57
1489006926.12,36176,9.25,73538.0,-7.17,-34.47,-34.53,0,*51
1489006927.38,36177,9.25,73536.8,-7.17,-34.35,-34.47,0,*50
1489006928.64,36178,9.25,73538.5,-7.17,-34.13,-34.31,0,*5A
1489006929.91,36179,9.25,73524.8,-7.17,-34.13,-34.01,0,*58
1489006931.19,36180,9.25,73488.5,-7.17,-33.89,-33.77,0,*5C
1489006932.39,36181,9.25,73492.0,-7.15,-33.95,-33.95,0,*5E
1489006933.62,36182,9.25,73510.8,-7.17,-33.95,-33.95,0,*5F
1489006934.85,36183,9.25,73500.5,-7.15,-33.95,-33.89,0,*51
1489006936.08,36184,9.25,73500.5,-7.15,-33.95,-33.89,0,*56
1489006937.28,36185,9.25,73506.8,-7.15,-33.95,-33.95,0,*5A
1489006938.48,36186,9.25,73508.8,-7.15,-33.95,-33.95,0,*59
1489006939.68,36187,9.25,73512.0,-7.15,-33.95,-33.95,0,*58
1489006940.94,36188,9.25,73502.8,-7.17,-33.95,-34.01,0,*5F
1489006942.15,36189,9.25,73498.5,-7.15,-33.95,-34.13,0,*5F
1489006943.38,36190,9.25,73500.8,-7.15,-34.13,-34.19,0,*54
1489006944.61,36191,9.25,73506.3,-7.15,-34.01,-34.13,0,*5C
1489006945.84,36192,9.25,73514.8,-7.13,-33.95,-34.13,0,*53
1489006947.09,36193,9.25,73508.8,-7.15,-34.35,-34.35,0,*5D
1489006948.34,36194,9.25,73508.5,-7.15,-34.31,-34.35,0,*5E
1489006949.6,36195,9.25,73514.5,-7.15,-34.19,-34.31,0,*51
1489006950.84,36196,9.25,73514.5,-7.13,-34.31,-34.41,0,*59
1489006952.06,36197,9.25,73512.3,-7.13,-34.41,-34.41,0,*5F
1489006953.31,36198,9.25,73512.8,-7.13,-34.41,-34.31,0,*57
1489006954.56,36199,9.25,73518.3,-7.13,-34.25,-34.31,0,*54
1489006955.78,36200,9.25,73508.3,-7.13,-34.41,-34.41,0,*52
1489006957.0,36201,9.25,73492.5,-7.13,-34.41,-34.41,0,*53
1489006958.22,36202,9.25,73502.3,-7.13,-34.25,-34.13,0,*55
1489006959.45,36203,9.25,73510.8,-7.13,-34.07,-34.25,0,*51
1489006960.66,36204,9.25,73512.3,-7.13,-34.25,-34.25,0,*56
1489006961.88,36205,9.25,73510.5,-7.13,-34.25,-34.25,0,*57
1489006963.16,36206,9.25,73510.5,-7.13,-34.31,-34.31,0,*54
1489006964.38,36207,9.25,73508.8,-7.11,-34.13,-34.31,0,*57
1489006965.61,36208,9.25,73502.8,-7.11,-34.13,-34.31,0,*58
1489006966.82,36209,9.25,73498.8,-7.11,-34.07,-34.13,0,*5C
1489006968.04,36210,9.25,73504.8,-7.13,-34.25,-34.41,0,*51
1489006969.27,36211,9.25,73504.0,-7.13,-34.41,-34.47,0,*54
1489006970.5,36212,9.25,73488.5,-7.11,-34.13,-34.31,0,*53
1489006971.69,36213,9.25,73496.8,-7.11,-34.25,-34.25,0,*52
1489006972.92,36214,9.25,73514.8,-7.11,-34.31,-34.41,0,*52
1489006974.15,36215,9.25,73512.3,-7.11,-34.07,-34.19,0,*5B
1489006975.37,36216,9.25,73490.0,-7.13,-34.07,-34.25,0,*55
1489006976.57,36217,9.25,73496.5,-7.11,-34.13,-34.25,0,*53
1489006977.8,36218,9.25,73502.0,-7.11,-34.25,-34.31,0,*5C
1489006979.0,36219,9.25,73494.8,-7.11,-34.41,-34.47,0,*5E
1489006980.24,36220,9.25,73504.3,-7.11,-34.31,-34.47,0,*53
1489006981.46,36221,9.25,73486.5,-7.11,-34.31,-34.41,0,*54
1489006982.66,36222,9.25,73502.0,-7.11,-34.41,-34.41,0,*50
1489006983.91,36223,9.25,73502.5,-7.09,-34.25,-34.35,0,*59
1489006985.13,36224,9.25,73498.0,-7.11,-34.31,-34.25,0,*53
1489006986.33,36225,9.25,73504.3,-7.11,-34.13,-34.25,0,*52
1489006987.53,36226,9.25,73500.0,-7.11,-34.25,-34.25,0,*54
1489006988.73,36227,9.25,73504.8,-7.11,-34.13,-34.25,0,*50
1489006989.92,36228,9.25,73502.3,-7.11,-34.25,-34.25,0,*5A
1489006991.18,36229,9.25,73500.3,-7.09,-34.07,-34.35,0,*53
1489006992.45,36230,9.25,73504.0,-7.09,-34.35,-34.35,0,*5A
1489006993.71,36231,9.25,73500.0,-7.11,-34.31,-34.31,0,*52
1489006994.96,36232,9.25,73510.5,-7.09,-34.19,-34.25,0,*57
1489006996.18,36233,9.25,73514.0,-7.07,-34.35,-34.25,0,*56
1489006997.39,36234,9.25,73518.8,-7.11,-34.47,-34.41,0,*51
1489006998.65,36235,9.25,73514.3,-7.11,-34.65,-34.65,0,*56
1489006999.87,36236,9.25,73500.0,-7.11,-34.47,-34.47,0,*55
1489007001.1,36237,9.25,73498.5,-7.11,-34.31,-34.47,0,*55
1489007002.31,36238,9.25,73502.0,-7.11,-34.41,-34.47,0,*5D
1489007003.53,36239,9.25,73496.0,-7.11,-34.25,-34.31,0,*5F
1489007004.73,36240,9.25,73502.5,-7.11,-34.25,-34.41,0,*56
1489007005.93,36241,9.25,73502.3,-7.11,-34.41,-34.41,0,*55
1489007007.18,36242,9.25,73502.8,-7.11,-34.31,-34.31,0,*56
1489007008.43,36243,9.25,73518.0,-7.09,-34.25,-34.35,0,*5F
1489007009.68,36244,9.25,73518.5,-7.09,-34.41,-34.53,0,*5A
1489007010.95,36245,9.25,73516.8,-7.09,-34.59,-34.53,0,*52
1489007012.23,36246,9.25,73510.5,-7.09,-34.35,-34.53,0,*5B
1489007013.49,36247,9.25,73516.3,-7.09,-34.53,-34.59,0,*50
1489007014.73,36248,9.25,73520.5,-7.09,-34.71,-34.59,0,*5F
1489007015.99,36249,9.25,73520.3,-7.11,-34.83,-34.95,0,*5A
1489007017.25,36250,9.25,73518.5,-7.11,-34.83,-34.95,0,*52
1489007018.51,36251,9.25,73520.5,-7.11,-34.95,-34.83,0,*53
1489007019.74,36252,9.25,73522.5,-7.11,-34.83,-34.77,0,*5C
1489007021.01,36253,9.25,73524.3,-7.11,-34.95,-34.95,0,*56
1489007022.27,36254,9.25,73528.5,-7.13,-34.95,-35.01,0,*5F
1489007023.54,36255,9.25,73530.3,-7.13,-34.83,-34.83,0,*52
1489007024.8,36256,9.25,73520.3,-7.13,-34.77,-34.83,0,*5A
1489007026.06,36257,9.25,73520.5,-7.13,-34.83,-34.77,0,*5B
1489007027.34,36258,9.25,73524.5,-7.13,-34.65,-34.65,0,*5F
1489007028.58,36259,9.25,73528.5,-7.15,-34.47,-34.53,0,*5D
1489007029.82,36260,9.25,73534.0,-7.15,-34.35,-34.47,0,*57
1489007031.04,36261,9.25,73536.0,-7.13,-34.25,-34.41,0,*57
1489007032.29,36262,9.25,73528.3,-7.13,-34.13,-34.31,0,*56
1489007033.52,36263,9.25,73532.0,-7.15,-33.89,-33.95,0,*5C
1489007034.72,36264,9.25,73528.8,-7.11,-34.13,-34.25,0,*57
1489007035.94,36265,9.25,73516.8,-7.11,-34.25,-34.31,0,*56
1489007037.16,36266,9.25,73514.3,-7.13,-33.95,-34.13,0,*5B
1489007038.39,36267,9.25,73512.3,-7.11,-34.31,-34.41,0,*56
1489007039.62,36268,9.25,73512.8,-7.13,-34.47,-34.59,0,*53
1489007040.86,36269,9.25,73508.8,-7.13,-34.47,-34.59,0,*52
1489007042.1,36270,9.25,73530.0,-7.13,-34.59,-34.77,0,*59
1489007043.33,36271,9.25,73538.8,-7.11,-34.65,-34.77,0,*55
1489007044.6,36272,9.25,73520.5,-7.11,-34.65,-34.65,0,*55
1489007045.83,36273,9.25,73498.3,-7.13,-34.47,-34.59,0,*59
1489007047.06,36274,9.25,73484.5,-7.13,-34.41,-34.47,0,*57
1489007048.28,36275,9.25,73504.8,-7.13,-34.41,-34.41,0,*50
1489007049.5,36276,9.25,73506.5,-7.13,-34.25,-34.41,0,*51
1489007050.7,36277,9.25,73524.0,-7.11,-34.41,-34.41,0,*50
1489007051.9,36278,9.25,73526.3,-7.11,-34.47,-34.41,0,*59
1489007053.14,36279,9.25,73516.3,-7.13,-34.47,-34.47,0,*5C
1489007054.4,36280,9.25,73514.8,-7.13,-34.31,-34.47,0,*5B
1489007055.63,36281,9.25,73514.8,-7.13,-34.47,-34.59,0,*54
1489007056.9,36282,9.25,73518.0,-7.13,-34.59,-34.65,0,*57
1489007058.11,36283,9.25,73522.0,-7.11,-34.47,-34.47,0,*5B
1489007059.35,36284,9.25,73534.8,-7.13,-34.59,-34.59,0,*5E
1489007060.58,36285,9.19,73524.8,-7.13,-34.77,-34.77,0,*5F
1489007061.82,36286,9.25,73508.5,-7.13,-34.47,-34.47,0,*5C
1489007063.06,36287,9.25,73510.0,-7.13,-34.47,-34.47,0,*5D
1489007064.3,36288,9.25,73490.0,-7.13,-34.25,-34.31,0,*57
1489007065.53,36289,9.25,73492.8,-7.13,-34.41,-34.47,0,*55
1489007066.79,36290,9.25,73508.8,-7.13,-34.31,-34.47,0,*5A
1489007068.02,36291,9.25,73516.0,-7.13,-34.41,-34.47,0,*5C
1489007069.24,36292,9.25,73522.5,-7.11,-34.31,-34.41,0,*5C
1489007070.48,36293,9.19,73516.5,-7.13,-34.59,-34.47,0,*57
1489007071.7,36294,9.25,73518.8,-7.11,-34.47,-34.47,0,*5D
1489007072.94,36295,9.19,73520.8,-7.13,-34.47,-34.47,0,*5E
1489007074.17,36296,9.25,73520.0,-7.13,-34.77,-34.77,0,*5D
1489007075.43,36297,9.19,73520.8,-7.13,-34.59,-34.65,0,*53
1489007076.72,36298,9.25,73526.5,-7.13,-34.65,-34.65,0,*53
1489007077.96,36299,9.25,73528.0,-7.13,-34.77,-34.77,0,*52
1489007079.19,36300,9.25,73530.0,-7.15,-34.83,-34.89,0,*5F
1489007080.43,36301,9.25,73530.0,-7.15,-34.71,-34.83,0,*59
1489007081.64,36302,9.25,73526.0,-7.15,-34.71,-34.71,0,*57
1489007082.91,36303,9.25,73522.8,-7.15,-34.53,-34.65,0,*53
1489007084.16,36304,9.19,73534.5,-7.15,-34.83,-34.83,0,*51
1489007085.42,36305,9.25,73532.5,-7.15,-34.83,-34.83,0,*50
1489007086.69,36306,9.25,73530.3,-7.15,-34.65,-34.65,0,*53
1489007087.92,36307,9.19,73530.3,-7.15,-34.83,-34.71,0,*5F
1489007089.13,36308,9.25,73528.8,-7.15,-34.89,-35.01,0,*5C
1489007090.39,36309,9.25,73532.5,-7.17,-34.83,-34.89,0,*54
1489007091.61,36310,9.19,73534.5,-7.15,-34.71,-34.71,0,*54
1489007092.84,36311,9.25,73542.8,-7.17,-34.89,-34.89,0,*57
1489007094.07,36312,9.25,73538.0,-7.17,-34.89,-35.01,0,*55
1489007095.32,36313,9.19,73530.3,-7.15,-34.71,-34.65,0,*52
1489007096.61,36314,9.25,73532.8,-7.17,-34.65,-34.65,0,*52
1489007097.86,36315,9.25,73534.0,-7.15,-34.71,-34.65,0,*54
1489007099.12,36316,9.25,73530.3,-7.17,-34.71,-34.83,0,*5D
1489007100.41,36317,9.19,73532.0,-7.17,-34.83,-34.83,0,*51
1489007101.66,36318,9.19,73530.5,-7.15,-34.83,-34.83,0,*5C
1489007102.93,36319,9.25,73538.0,-7.17,-34.71,-34.83,0,*52
1489007104.19,36320,9.19,73538.5,-7.17,-34.83,-34.71,0,*58
1489007105.47,36321,9.19,73540.5,-7.17,-34.83,-34.83,0,*54
1489007106.69,36322,9.25,73546.3,-7.15,-34.71,-34.71,0,*55
1489007107.95,36323,9.19,73538.3,-7.17,-34.31,-34.47,0,*57
1489007109.22,36324,9.19,73532.0,-7.17,-34.47,-34.65,0,*51
1489007110.51,36325,9.19,73532.8,-7.17,-34.53,-34.53,0,*50
1489007111.78,36326,9.19,73540.8,-7.17,-34.47,-34.53,0,*56
1489007113.04,36327,9.25,73530.8,-7.17,-34.13,-34.19,0,*58
1489007114.27,36328,9.19,73524.8,-7.17,-33.95,-33.95,0,*5D
1489007115.55,36329,9.19,73526.8,-7.17,-34.31,-34.35,0,*58
1489007116.84,36330,9.19,73518.8,-7.17,-34.01,-34.01,0,*54
1489007118.1,36331,9.25,73526.0,-7.17,-34.01,-34.13,0,*56
1489007119.34,36332,9.25,73528.5,-7.17,-34.47,-34.47,0,*56
1489007120.59,36333,9.19,73524.0,-7.17,-34.47,-34.47,0,*57
1489007121.81,36334,9.19,73528.5,-7.15,-34.47,-34.47,0,*52
1489007123.07,36335,9.19,73536.3,-7.15,-34.65,-34.53,0,*56
1489007124.36,36336,9.25,73530.8,-7.17,-34.65,-34.53,0,*57
1489007125.6,36337,9.19,73526.0,-7.15,-34.47,-34.53,0,*54
1489007126.9,36338,9.19,73528.3,-7.17,-34.53,-34.53,0,*5C
1489007128.19,36339,9.19,73530.0,-7.17,-34.65,-34.53,0,*58
1489007129.48,36340,9.19,73528.3,-7.17,-34.65,-34.65,0,*53
1489007130.77,36341,9.19,73528.0,-7.17,-34.53,-34.53,0,*52
1489007132.01,36342,9.19,73528.0,-7.21,-34.59,-34.59,0,*54
1489007133.28,36343,9.19,73528.5,-7.15,-34.53,-34.53,0,*52
1489007134.54,36344,9.25,73528.0,-7.17,-34.47,-34.53,0,*52
1489007135.83,36345,9.25,73528.0,-7.17,-34.53,-34.53,0,*56
1489007137.12,36346,9.19,73524.5,-7.17,-34.35,-34.53,0,*55
1489007138.37,36347,9.25,73528.3,-7.17,-34.47,-34.47,0,*54
1489007139.61,36348,9.25,73524.3,-7.15,-34.47,-34.53,0,*5C
1489007140.9,36349,9.19,73526.0,-7.17,-34.53,-34.53,0,*5A
1489007142.19,36350,9.19,73518.3,-7.17,-34.35,-34.53,0,*52
1489007143.45,36351,9.19,73518.0,-7.17,-34.35,-34.47,0,*56
1489007144.73,36352,9.19,73510.0,-7.17,-34.19,-34.31,0,*5A
1489007145.99,36353,9.19,73510.5,-7.17,-34.35,-34.47,0,*54
1489007147.26,36354,9.19,73508.5,-7.17,-34.31,-34.47,0,*57
1489007148.52,36355,9.19,73506.8,-7.17,-34.31,-34.47,0,*56
1489007149.79,36356,9.19,73504.5,-7.17,-34.35,-34.47,0,*51
1489007151.03,36357,9.19,73510.8,-7.17,-34.47,-34.47,0,*55
1489007152.27,36358,9.19,73506.3,-7.15,-34.35,-34.47,0,*5D
1489007153.52,36359,9.25,73510.0,-7.15,-34.19,-34.31,0,*53
1489007154.76,36360,9.19,73510.3,-7.15,-34.31,-34.47,0,*52
1489007156.01,36361,9.19,73494.8,-7.15,-34.31,-34.35,0,*56
1489007157.29,36362,9.19,73496.8,-7.17,-34.31,-34.35,0,*57
1489007158.55,36363,9.19,73506.3,-7.15,-34.31,-34.35,0,*54
1489007159.78,36364,9.19,73506.8,-7.15,-34.35,-34.47,0,*52
1489007161.04,36365,9.19,73504.0,-7.15,-34.35,-34.35,0,*56
1489007162.25,36366,9.19,73508.3,-7.13,-34.25,-34.41,0,*51
1489007163.5,36367,9.19,73514.0,-7.13,-34.31,-34.41,0,*55
1489007164.74,36368,9.19,73516.5,-7.13,-34.47,-34.59,0,*52
1489007166.0,36369,9.19,73516.8,-7.13,-34.59,-34.65,0,*53
1489007167.27,36370,9.19,73512.8,-7.17,-34.47,-34.53,0,*55
1489007168.49,36371,9.19,73510.8,-7.15,-34.47,-34.47,0,*53
1489007169.75,36372,9.19,73512.3,-7.15,-34.53,-34.65,0,*55
1489007170.97,36373,9.19,73508.8,-7.13,-34.41,-34.41,0,*57
1489007172.21,36374,9.19,73506.5,-7.13,-34.59,-34.59,0,*50
1489007173.45,36375,9.19,73530.3,-7.15,-34.71,-34.65,0,*52
1489007174.72,36376,9.19,73526.5,-7.15,-34.53,-34.53,0,*54
1489007175.98,36377,9.19,73532.3,-7.15,-34.65,-34.53,0,*50
1489007177.22,36378,9.19,73542.5,-7.15,-34.71,-34.53,0,*5A
1489007178.46,36379,9.19,73544.8,-7.15,-34.31,-34.47,0,*5A
1489007179.71,36380,9.19,73540.8,-7.15,-34.19,-34.35,0,*53
1489007180.92,36381,9.19,73538.8,-7.15,-34.13,-34.13,0,*5C
1489007182.17,36382,9.19,73540.8,-7.15,-34.31,-34.31,0,*5F
1489007183.42,36383,9.19,73532.3,-7.15,-34.47,-34.53,0,*5B
1489007184.68,36384,9.19,73530.8,-7.15,-34.65,-34.53,0,*5C
1489007185.95,36385,9.19,73534.8,-7.15,-34.53,-34.65,0,*5D
1489007187.21,36386,9.19,73532.3,-7.15,-34.65,-34.65,0,*5B
1489007188.43,36387,9.19,73530.0,-7.15,-34.71,-34.71,0,*5A
1489007189.7,36388,9.19,73532.0,-7.15,-34.65,-34.65,0,*55
1489007190.96,36389,9.19,73524.3,-7.15,-34.53,-34.53,0,*54
1489007192.23,36390,9.19,73526.3,-7.15,-34.65,-34.65,0,*5C
1489007193.5,36391,9.19,73514.0,-7.15,-34.53,-34.65,0,*58
1489007194.76,36392,9.19,73502.0,-7.15,-34.53,-34.53,0,*5E
1489007196.0,36393,9.19,73514.0,-7.15,-34.53,-34.47,0,*5A
1489007197.24,36394,9.19,73534.3,-7.15,-34.65,-34.71,0,*5D
1489007198.48,36395,9.19,73534.0,-7.15,-34.65,-34.71,0,*5C
1489007199.73,36396,9.19,73516.0,-7.15,-34.31,-34.35,0,*5E
1489007200.95,36397,9.19,73502.3,-7.15,-34.47,-34.47,0,*5B
1489007202.23,36398,9.19,73514.5,-7.17,-34.19,-34.31,0,*5C
1489007203.48,36399,9.19,73498.3,-7.15,-34.31,-34.35,0,*51
1489007204.73,36400,9.19,73510.5,-7.15,-34.19,-34.35,0,*5C
1489007205.99,36401,9.19,73514.8,-7.15,-34.31,-34.31,0,*53
1489007207.22,36402,9.19,73504.8,-7.15,-34.13,-34.19,0,*5A
1489007208.47,36403,9.19,73506.8,-7.15,-34.31,-34.35,0,*55
1489007209.72,36404,9.19,73508.0,-7.15,-34.35,-34.35,0,*56
1489007210.96,36405,9.19,73512.3,-7.15,-34.35,-34.47,0,*52
1489007212.2,36406,9.19,73508.3,-7.15,-34.35,-34.47,0,*51
1489007213.46,36407,9.19,73508.8,-7.15,-34.53,-34.53,0,*55
1489007214.75,36408,9.19,73516.5,-7.17,-34.53,-34.53,0,*58
1489007215.99,36409,9.19,73516.5,-7.15,-34.47,-34.53,0,*5E
1489007217.23,36410,9.19,73520.8,-7.15,-34.47,-34.53,0,*56
1489007218.52,36411,9.19,73518.8,-7.17,-34.53,-34.53,0,*50
1489007219.79,36412,9.19,73520.3,-7.15,-34.35,-34.53,0,*51
1489007221.07,36413,9.19,73520.8,-7.17,-34.35,-34.53,0,*52
1489007222.34,36414,9.19,73526.0,-7.17,-34.47,-34.53,0,*50
1489007223.58,36415,9.19,73522.8,-7.15,-34.47,-34.53,0,*53
1489007224.82,36416,9.19,73518.3,-7.15,-34.47,-34.53,0,*50
1489007226.12,36417,9.19,73510.0,-7.17,-34.65,-34.65,0,*56
1489007227.41,36418,9.19,73508.3,-7.17,-34.65,-34.65,0,*59
1489007228.7,36419,9.19,73510.5,-7.17,-34.53,-34.53,0,*58
1489007229.96,36420,9.19,73512.8,-7.15,-34.35,-34.35,0,*50
1489007231.22,36421,9.19,73512.0,-7.17,-34.31,-34.47,0,*52
1489007232.46,36422,9.19,73520.5,-7.15,-34.35,-34.47,0,*57
1489007233.71,36423,9.19,73510.3,-7.15,-34.31,-34.35,0,*57
1489007234.94,36424,9.19,73496.3,-7.15,-34.13,-34.19,0,*5E
1489007236.19,36425,9.19,73492.3,-7.15,-34.19,-34.31,0,*5F
1489007237.43,36426,9.19,73498.5,-7.15,-34.35,-34.47,0,*53
1489007238.69,36427,9.19,73500.8,-7.17,-34.35,-34.47,0,*50
1489007239.93,36428,9.19,73508.0,-7.15,-34.35,-34.47,0,*5D
1489007241.18,36429,9.19,73506.3,-7.15,-34.19,-34.35,0,*57
1489007242.42,36430,9.19,73508.0,-7.15,-34.31,-34.47,0,*50
1489007243.66,36431,9.19,73518.3,-7.15,-34.47,-34.53,0,*55
1489007244.93,36432,9.19,73512.8,-7.15,-34.53,-34.65,0,*56
1489007246.19,36433,9.19,73526.5,-7.15,-34.53,-34.53,0,*52
1489007247.46,36434,9.19,73524.8,-7.15,-34.53,-34.53,0,*55
1489007248.72,36435,9.19,73522.8,-7.15,-34.53,-34.53,0,*54
1489007249.97,36436,9.19,73522.5,-7.13,-34.31,-34.41,0,*56
1489007251.26,36437,9.19,73522.0,-7.17,-34.65,-34.53,0,*51
1489007252.53,36438,9.19,73520.0,-7.17,-34.47,-34.53,0,*5E
1489007253.77,36439,9.19,73534.0,-7.15,-34.47,-34.53,0,*5D
1489007255.01,36440,9.19,73526.0,-7.15,-34.35,-34.47,0,*53
1489007256.26,36441,9.19,73512.0,-7.15,-34.31,-34.31,0,*57
1489007257.5,36442,9.19,73502.3,-7.15,-34.31,-34.47,0,*55
1489007258.74,36443,9.19,73500.8,-7.15,-34.47,-34.53,0,*50
1489007260.0,36444,9.19,73504.5,-7.15,-34.53,-34.53,0,*52
1489007261.26,36445,9.19,73512.8,-7.15,-34.19,-34.35,0,*5D
1489007262.51,36446,9.19,73512.3,-7.15,-34.19,-34.35,0,*5E
1489007263.76,36447,9.19,73514.3,-7.15,-34.35,-34.35,0,*51
1489007264.98,36448,9.19,73522.3,-7.13,-34.41,-34.41,0,*58
1489007266.23,36449,9.19,73520.3,-7.13,-34.31,-34.41,0,*5E
1489007267.45,36450,9.19,73514.0,-7.13,-34.07,-34.25,0,*51
1489007268.68,36451,9.19,73518.5,-7.13,-34.07,-34.25,0,*50
1489007269.9,36452,9.19,73516.5,-7.13,-34.07,-34.25,0,*53
1489007271.12,36453,9.19,73512.8,-7.13,-34.25,-34.25,0,*52
1489007272.37,36454,9.19,73504.8,-7.13,-34.25,-34.31,0,*50
1489007273.61,36455,9.19,73518.0,-7.13,-34.25,-34.31,0,*51
1489007274.86,36456,9.19,73520.5,-7.13,-34.13,-34.31,0,*57
1489007276.11,36457,9.19,73524.5,-7.13,-34.31,-34.25,0,*53
1489007277.33,36458,9.19,73528.0,-7.11,-34.59,-34.47,0,*54
1489007278.59,36459,9.19,73528.3,-7.11,-34.65,-34.65,0,*5A
1489007279.86,36460,9.19,73522.5,-7.13,-34.59,-34.65,0,*5D
1489007281.09,36461,9.19,73530.8,-7.13,-34.59,-34.59,0,*53
1489007282.32,36462,9.19,73532.3,-7.13,-34.47,-34.59,0,*5F
1489007283.56,36463,9.19,73534.3,-7.13,-34.59,-34.59,0,*51
1489007284.78,36464,9.19,73524.3,-7.13,-34.41,-34.59,0,*5F
1489007286.02,36465,9.19,73524.0,-7.13,-34.47,-34.47,0,*57
1489007287.26,36466,9.19,73516.3,-7.13,-34.47,-34.47,0,*54
1489007288.49,36467,9.19,73520.8,-7.13,-34.41,-34.47,0,*53
1489007289.72,36468,9.19,73528.8,-7.13,-34.59,-34.59,0,*5A
1489007290.96,36469,9.19,73536.5,-7.15,-34.71,-34.83,0,*50
1489007292.24,36470,9.19,73542.8,-7.13,-34.83,-34.83,0,*53
1489007293.45,36471,9.19,73532.0,-7.15,-34.71,-34.71,0,*54
1489007294.7,36472,9.19,73524.0,-7.15,-34.35,-34.35,0,*57
1489007295.94,36473,9.19,73512.5,-7.15,-34.47,-34.53,0,*53
1489007297.21,36474,9.19,73530.3,-7.15,-34.53,-34.65,0,*54
1489007298.45,36475,9.19,73524.8,-7.15,-34.35,-34.47,0,*55
1489007299.66,36476,9.19,73528.0,-7.15,-34.13,-34.13,0,*53
1489007300.92,36477,9.19,73534.8,-7.17,-34.31,-34.47,0,*51
1489007302.19,36478,9.19,73536.5,-7.15,-34.53,-34.53,0,*5D
1489007303.45,36479,9.19,73534.0,-7.15,-34.53,-34.53,0,*5C
1489007304.72,36480,9.19,73528.0,-7.15,-34.65,-34.65,0,*5A
1489007305.98,36481,9.19,73528.0,-7.13,-34.65,-34.59,0,*52
1489007307.21,36482,9.19,73542.5,-7.13,-34.41,-34.47,0,*58